Time,TemperatureF,DewpointF,PressureIn,WindDirection,WindDirectionDegrees,WindSpeedMPH,WindSpeedGustMPH,Humidity,HourlyPrecipIn,Conditions,Clouds,dailyrainin,SoftwareType,DateUTC
2013-09-23 00:09:00,44.6,43.0,30.11,SE,134,0.0,1.0,94,0.00,,,0.00,weatherlink.com 1.10,2013-09-23 05:09:00,
2013-09-23 00:24:00,44.5,43.0,30.11,SE,134,0.0,1.0,94,0.00,,,0.00,weatherlink.com 1.10,2013-09-23 05:24:00,
2013-09-23 00:39:00,44.5,43.0,30.11,SE,134,0.0,0.0,94,0.00,,,0.00,weatherlink.com 1.10,2013-09-23 05:39:00,
2013-09-23 00:54:00,44.5,43.0,30.11,SE,134,0.0,1.0,94,0.00,,,0.00,weatherlink.com 1.10,2013-09-23 05:54:00,
2013-09-23 01:09:00,44.6,43.0,30.11,SE,134,0.0,0.0,94,0.00,,,0.00,weatherlink.com 1.10,2013-09-23 06:09:00,
2013-09-23 01:24:00,44.9,44.0,30.11,SE,134,0.0,2.0,95,0.00,,,0.00,weatherlink.com 1.10,2013-09-23 06:24:00,
2013-09-23 01:39:00,45.0,43.0,30.11,SE,134,0.0,1.0,94,0.00,,,0.00,weatherlink.com 1.10,2013-09-23 06:39:00,
2013-09-23 01:54:00,45.6,44.0,30.11,SE,134,1.0,2.0,95,0.00,,,0.00,weatherlink.com 1.10,2013-09-23 06:54:00,
2013-09-23 02:09:00,45.9,44.0,30.11,SE,134,1.0,3.0,94,0.00,,,0.00,weatherlink.com 1.10,2013-09-23 07:09:00,
2013-09-23 02:24:00,45.9,44.0,30.11,SE,134,0.0,1.0,94,0.00,,,0.00,weatherlink.com 1.10,2013-09-23 07:24:00,
2013-09-23 02:39:00,45.9,44.0,30.11,SE,134,0.0,2.0,94,0.00,,,0.00,weatherlink.com 1.10,2013-09-23 07:39:00,
2013-09-23 02:54:00,45.6,44.0,30.11,SE,134,0.0,0.0,93,0.00,,,0.00,weatherlink.com 1.10,2013-09-23 07:54:00,
2013-09-23 03:09:00,44.0,42.0,30.11,SE,134,0.0,0.0,92,0.00,,,0.00,weatherlink.com 1.10,2013-09-23 08:09:00,
2013-09-23 03:24:00,43.3,42.0,30.11,SE,134,0.0,0.0,93,0.00,,,0.00,weatherlink.com 1.10,2013-09-23 08:24:00,
2013-09-23 03:39:00,42.7,41.0,30.11,SE,134,0.0,0.0,93,0.00,,,0.00,weatherlink.com 1.10,2013-09-23 08:39:00,
2013-09-23 03:54:00,42.3,41.0,30.12,SE,134,0.0,0.0,94,0.00,,,0.00,weatherlink.com 1.10,2013-09-23 08:54:00,
2013-09-23 04:09:00,41.9,40.0,30.12,SE,134,0.0,0.0,94,0.00,,,0.00,weatherlink.com 1.10,2013-09-23 09:09:00,
2013-09-23 04:24:00,41.6,40.0,30.12,SE,134,0.0,0.0,94,0.00,,,0.00,weatherlink.com 1.10,2013-09-23 09:24:00,
2013-09-23 04:39:00,41.1,40.0,30.13,SE,134,0.0,0.0,94,0.00,,,0.00,weatherlink.com 1.10,2013-09-23 09:39:00,
2013-09-23 04:55:00,40.7,39.0,30.12,SE,134,0.0,0.0,94,0.00,,,0.00,weatherlink.com 1.10,2013-09-23 09:55:00,
2013-09-23 05:10:00,40.6,39.0,30.13,SE,134,0.0,0.0,94,0.00,,,0.00,weatherlink.com 1.10,2013-09-23 10:10:00,
2013-09-23 05:25:00,-999.0,-99.9,30.13,North,-999,-999.0,-999.0,-999,0.00,,,0.00,weatherlink.com 1.10,2013-09-23 10:25:00,
2013-09-23 05:40:00,-999.0,-99.9,30.13,North,-999,-999.0,-999.0,-999,0.00,,,0.00,weatherlink.com 1.10,2013-09-23 10:40:00,
2013-09-23 05:55:00,-999.0,-99.9,30.14,North,-999,-999.0,-999.0,-999,0.00,,,0.00,weatherlink.com 1.10,2013-09-23 10:55:00,
2013-09-23 06:10:00,-999.0,-99.9,30.14,North,-999,-999.0,-999.0,-999,0.00,,,0.00,weatherlink.com 1.10,2013-09-23 11:10:00,
2013-09-23 06:25:00,-999.0,-99.9,30.14,North,-999,-999.0,-999.0,-999,0.00,,,0.00,weatherlink.com 1.10,2013-09-23 11:25:00,
2013-09-23 06:40:00,-999.0,-99.9,30.14,North,-999,-999.0,-999.0,-999,0.00,,,0.00,weatherlink.com 1.10,2013-09-23 11:40:00,
2013-09-23 06:55:00,-999.0,-99.9,30.15,North,-999,-999.0,-999.0,-999,0.00,,,0.00,weatherlink.com 1.10,2013-09-23 11:55:00,
2013-09-23 07:25:00,40.7,40.0,30.15,SE,134,0.0,0.0,96,0.00,,,0.00,weatherlink.com 1.10,2013-09-23 12:25:00,
2013-09-23 07:55:00,44.1,43.0,30.16,SE,134,0.0,1.0,97,0.00,,,0.00,weatherlink.com 1.10,2013-09-23 12:55:00,
2013-09-23 08:10:00,47.7,47.0,30.15,SE,134,0.0,3.0,97,0.00,,,0.00,weatherlink.com 1.10,2013-09-23 13:10:00,
2013-09-23 08:55:00,54.7,53.0,30.15,SSE,157,1.0,6.0,92,0.00,,,0.00,weatherlink.com 1.10,2013-09-23 13:55:00,
2013-09-23 09:10:00,55.6,52.0,30.15,ESE,115,3.0,6.0,88,0.00,,,0.00,weatherlink.com 1.10,2013-09-23 14:10:00,
2013-09-23 09:25:00,56.6,52.0,30.15,East,89,0.0,7.0,85,0.00,,,0.00,weatherlink.com 1.10,2013-09-23 14:25:00,
2013-09-23 09:40:00,57.2,52.0,30.16,SSE,165,4.0,7.0,82,0.00,,,0.00,weatherlink.com 1.10,2013-09-23 14:40:00,
2013-09-23 09:55:00,57.3,51.0,30.16,East,93,2.0,5.0,80,0.00,,,0.00,weatherlink.com 1.10,2013-09-23 14:55:00,
2013-09-23 10:11:00,58.4,52.0,30.16,ENE,74,2.0,9.0,78,0.00,,,0.00,weatherlink.com 1.10,2013-09-23 15:11:00,
2013-09-23 10:26:00,58.7,51.0,30.16,SE,126,2.0,6.0,76,0.00,,,0.00,weatherlink.com 1.10,2013-09-23 15:26:00,
2013-09-23 10:41:00,58.8,51.0,30.17,ENE,61,2.0,5.0,74,0.00,,,0.00,weatherlink.com 1.10,2013-09-23 15:41:00,
2013-09-23 10:56:00,59.8,51.0,30.17,ENE,67,4.0,8.0,73,0.00,,,0.00,weatherlink.com 1.10,2013-09-23 15:56:00,
2013-09-23 11:11:00,60.5,52.0,30.17,ESE,109,3.0,6.0,73,0.00,,,0.00,weatherlink.com 1.10,2013-09-23 16:11:00,
2013-09-23 11:26:00,61.3,51.0,30.16,ESE,108,1.0,7.0,70,0.00,,,0.00,weatherlink.com 1.10,2013-09-23 16:26:00,
2013-09-23 11:41:00,61.1,50.0,30.16,SSE,152,3.0,6.0,68,0.00,,,0.00,weatherlink.com 1.10,2013-09-23 16:41:00,
2013-09-23 11:56:00,61.2,51.0,30.16,SE,131,2.0,5.0,69,0.00,,,0.00,weatherlink.com 1.10,2013-09-23 16:56:00,
2013-09-23 12:26:00,61.3,51.0,30.15,East,97,3.0,6.0,68,0.00,,,0.00,weatherlink.com 1.10,2013-09-23 17:26:00,
2013-09-23 12:41:00,61.7,51.0,30.14,NE,55,3.0,7.0,68,0.00,,,0.00,weatherlink.com 1.10,2013-09-23 17:41:00,
2013-09-23 13:11:00,62.2,51.0,30.14,NE,39,1.0,6.0,68,0.00,,,0.00,weatherlink.com 1.10,2013-09-23 18:11:00,
2013-09-23 13:26:00,62.7,52.0,30.13,SE,142,3.0,8.0,67,0.00,,,0.00,weatherlink.com 1.10,2013-09-23 18:26:00,
2013-09-23 13:56:00,62.4,52.0,30.12,SE,140,4.0,8.0,68,0.00,,,0.00,weatherlink.com 1.10,2013-09-23 18:56:00,
2013-09-23 14:11:00,62.3,50.0,30.11,ESE,121,3.0,7.0,65,0.00,,,0.00,weatherlink.com 1.10,2013-09-23 19:11:00,
2013-09-23 14:26:00,62.3,52.0,30.11,ENE,78,1.0,10.0,68,0.00,,,0.00,weatherlink.com 1.10,2013-09-23 19:26:00,
2013-09-23 14:41:00,62.1,51.0,30.11,ENE,70,5.0,8.0,67,0.00,,,0.00,weatherlink.com 1.10,2013-09-23 19:41:00,
2013-09-23 14:56:00,61.5,51.0,30.11,ENE,69,4.0,8.0,69,0.00,,,0.00,weatherlink.com 1.10,2013-09-23 19:56:00,
2013-09-23 15:11:00,61.3,51.0,30.11,ESE,119,2.0,10.0,68,0.00,,,0.00,weatherlink.com 1.10,2013-09-23 20:11:00,
2013-09-23 15:26:00,61.0,51.0,30.11,East,82,5.0,9.0,69,0.00,,,0.00,weatherlink.com 1.10,2013-09-23 20:26:00,
2013-09-23 15:41:00,60.7,50.0,30.11,SE,137,1.0,8.0,68,0.00,,,0.00,weatherlink.com 1.10,2013-09-23 20:41:00,
2013-09-23 15:56:00,60.6,50.0,30.11,East,94,3.0,7.0,69,0.00,,,0.00,weatherlink.com 1.10,2013-09-23 20:56:00,
2013-09-23 16:11:00,60.2,50.0,30.11,SE,127,4.0,9.0,69,0.00,,,0.00,weatherlink.com 1.10,2013-09-23 21:11:00,
2013-09-23 16:26:00,59.9,50.0,30.10,SSE,155,4.0,7.0,69,0.00,,,0.00,weatherlink.com 1.10,2013-09-23 21:26:00,
2013-09-23 16:41:00,59.5,49.0,30.10,East,96,2.0,10.0,69,0.00,,,0.00,weatherlink.com 1.10,2013-09-23 21:41:00,
2013-09-23 16:56:00,59.0,49.0,30.10,NE,41,4.0,13.0,69,0.00,,,0.00,weatherlink.com 1.10,2013-09-23 21:56:00,
2013-09-23 17:11:00,58.7,49.0,30.10,ESE,123,3.0,8.0,70,0.00,,,0.00,weatherlink.com 1.10,2013-09-23 22:11:00,
2013-09-23 17:26:00,58.4,49.0,30.09,SE,146,3.0,9.0,71,0.00,,,0.00,weatherlink.com 1.10,2013-09-23 22:26:00,
2013-09-23 17:41:00,58.1,49.0,30.10,East,94,2.0,5.0,72,0.00,,,0.00,weatherlink.com 1.10,2013-09-23 22:41:00,
2013-09-23 17:56:00,57.6,49.0,30.10,ENE,65,2.0,7.0,73,0.00,,,0.00,weatherlink.com 1.10,2013-09-23 22:56:00,
2013-09-23 18:11:00,57.2,49.0,30.10,SE,145,3.0,4.0,74,0.00,,,0.00,weatherlink.com 1.10,2013-09-23 23:11:00,
2013-09-23 18:26:00,56.7,49.0,30.10,East,82,0.0,5.0,76,0.00,,,0.00,weatherlink.com 1.10,2013-09-23 23:26:00,
2013-09-23 18:41:00,56.0,49.0,30.10,SE,125,0.0,5.0,78,0.00,,,0.00,weatherlink.com 1.10,2013-09-23 23:41:00,
2013-09-23 18:56:00,55.5,49.0,30.10,ENE,78,1.0,3.0,80,0.00,,,0.00,weatherlink.com 1.10,2013-09-23 23:56:00,
2013-09-23 19:11:00,55.1,49.0,30.10,SSE,148,0.0,3.0,81,0.00,,,0.00,weatherlink.com 1.10,2013-09-24 00:11:00,
2013-09-23 19:26:00,54.6,49.0,30.10,SSE,148,0.0,0.0,82,0.00,,,0.00,weatherlink.com 1.10,2013-09-24 00:26:00,
2013-09-23 19:41:00,54.0,49.0,30.10,SSE,148,0.0,1.0,84,0.00,,,0.00,weatherlink.com 1.10,2013-09-24 00:41:00,
2013-09-23 19:56:00,53.2,49.0,30.11,SSE,148,0.0,0.0,84,0.00,,,0.00,weatherlink.com 1.10,2013-09-24 00:56:00,
2013-09-23 20:11:00,52.0,48.0,30.11,SSE,148,0.0,0.0,86,0.00,,,0.00,weatherlink.com 1.10,2013-09-24 01:11:00,
2013-09-23 20:26:00,50.9,47.0,30.11,SSE,148,0.0,0.0,87,0.00,,,0.00,weatherlink.com 1.10,2013-09-24 01:26:00,
2013-09-23 20:41:00,50.1,47.0,30.11,SSE,148,0.0,0.0,88,0.00,,,0.00,weatherlink.com 1.10,2013-09-24 01:41:00,
2013-09-23 20:56:00,49.3,46.0,30.10,SSE,148,0.0,0.0,89,0.00,,,0.00,weatherlink.com 1.10,2013-09-24 01:56:00,
2013-09-23 22:27:00,46.6,44.0,30.11,SSE,148,0.0,0.0,92,0.00,,,0.00,weatherlink.com 1.10,2013-09-24 03:27:00,
2013-09-23 22:42:00,46.3,44.0,30.10,SSE,148,0.0,0.0,93,0.00,,,0.00,weatherlink.com 1.10,2013-09-24 03:42:00,
2013-09-23 22:57:00,46.3,44.0,30.10,SSE,148,0.0,0.0,93,0.00,,,0.00,weatherlink.com 1.10,2013-09-24 03:57:00,
2013-09-23 23:12:00,46.3,44.0,30.10,SSE,148,0.0,0.0,93,0.00,,,0.00,weatherlink.com 1.10,2013-09-24 04:12:00,
2013-09-23 23:27:00,45.9,44.0,30.09,SSE,148,0.0,0.0,93,0.00,,,0.00,weatherlink.com 1.10,2013-09-24 04:27:00,
2013-09-23 23:42:00,46.1,45.0,30.09,SSE,148,0.0,0.0,94,0.00,,,0.00,weatherlink.com 1.10,2013-09-24 04:42:00,
2013-09-23 23:57:00,48.3,47.0,30.09,SSE,148,0.0,1.0,96,0.00,,,0.00,weatherlink.com 1.10,2013-09-24 04:57:00,